Homestead, FL

5:25 AM EST on February 21, 2017 (GMT -0500)
Dade County-Homestead Regional

Weather History for KHST - March, 2014

Change the Weather History Date:

Sunday, March 23, 2014

  Actual Average Record
Temperature  
Mean Temperature 78 °F -  
Max Temperature 88 °F 80 °F 93 °F (1997)
Min Temperature 68 °F 56 °F 36 °F (1960)
Cooling Degree Days 12    
Growing Degree Days 28 (Base 50)    
Moisture  
Dew Point 69 °F    
Average Humidity 76    
Maximum Humidity 89    
Minimum Humidity 55    
Precipitation  
Precipitation 0.00 in - - ()
Sea Level Pressure  
Sea Level Pressure 30.04 in    
Wind  
Wind Speed 6 mph (West)    
Max Wind Speed 17 mph    
Max Gust Speed 24 mph    
Visibility 10 miles    
Events      
Averages and records for this station are not official NWS values.
T = Trace of Precipitation, MM = Missing Value Source: NWS Daily Summary

Daily Weather History Graph

Daily Weather History Graph

Search for Another Location

Airport or City:

Trip Planner

Search our weather history database for the weather conditions in past years. The results will help you decide how hot, cold, wet, or windy it might be!

Date:

Astronomy

Mar. 23, 2014 Rise Set
Actual Time 7:22 AM EDT 7:34 PM EDT
Civil Twilight 6:59 AM EDT 7:57 PM EDT
Nautical Twilight 6:32 AM EDT 8:23 PM EDT
Astronomical Twilight 6:05 AM EDT 8:50 PM EDT
Moon 1:21 AM EDT (3/23) 12:30 PM EDT (3/23)
Length of Visible Light 12h 57m
Length of Day
12h 11m
Waning Gibbous, 55% of the Moon is Illuminated
Mar 23
Waning Gibbous
Mar 23
Last Quarter
Mar 30
New
Apr 7
First Quarter
Apr 15
Full

Hourly Weather History & Observations

Time (EDT) Temp. Heat Index Dew Point Humidity Pressure Visibility Wind Dir Wind Speed Gust Speed Precip Events Conditions
12:58 AM 68.5 °F - 62.6 °F 81% 30.08 in 10.0 mi West 3.5 mph - N/A   Clear
1:58 AM 71.6 °F - 64.4 °F 78% 30.07 in 10.0 mi West 4.6 mph - N/A   Mostly Cloudy
2:58 AM 71.2 °F - 64.4 °F 79% 30.05 in 10.0 mi West 3.5 mph - N/A   Overcast
3:58 AM 70.7 °F - 63.9 °F 79% 30.04 in 10.0 mi NNW 1.2 mph - N/A   Scattered Clouds
4:58 AM 69.8 °F - 64.4 °F 83% 30.04 in 10.0 mi NNW 3.5 mph - N/A   Scattered Clouds
5:58 AM 69.6 °F - 64.4 °F 83% 30.05 in 10.0 mi Calm Calm - N/A   Overcast
6:58 AM 69.6 °F - 64.8 °F 84% 30.06 in 10.0 mi NW 1.2 mph - N/A   Mostly Cloudy
7:58 AM 70.3 °F - 65.5 °F 85% 30.07 in 10.0 mi Calm Calm - N/A   Partly Cloudy
8:58 AM 73.9 °F - 65.8 °F 76% 30.08 in 10.0 mi NW 3.5 mph - N/A   Mostly Cloudy
9:58 AM 76.3 °F - 69.1 °F 78% 30.08 in 10.0 mi Calm Calm - N/A   Partly Cloudy
10:58 AM 80.4 °F 84.7 °F 72.5 °F 77% 30.08 in 10.0 mi SW 4.6 mph - N/A   Clear
11:58 AM 83.3 °F 88.7 °F 72.3 °F 69% 30.07 in 10.0 mi Variable 4.6 mph - N/A   Clear
12:58 PM 86.2 °F 92.2 °F 71.8 °F 62% 30.05 in 10.0 mi Variable 5.8 mph - N/A   Clear
1:58 PM 84.7 °F 91.4 °F 73.0 °F 68% 30.02 in 10.0 mi SSW 10.4 mph - N/A   Partly Cloudy
2:56 PM 84.2 °F 90.9 °F 73.4 °F 70% 30.00 in 10.0 mi SSW 10.4 mph 17.3 mph N/A   Partly Cloudy
2:58 PM 84.2 °F 90.9 °F 73.4 °F 70% 30.00 in 10.0 mi SSW 12.7 mph 17.3 mph N/A   Partly Cloudy
3:58 PM 87.3 °F 91.6 °F 69.4 °F 55% 29.98 in 10.0 mi West 17.3 mph - N/A   Partly Cloudy
4:58 PM 87.4 °F 92.7 °F 70.7 °F 57% 29.98 in 10.0 mi West 12.7 mph - N/A   Partly Cloudy
5:58 PM 84.9 °F 90.1 °F 70.9 °F 63% 30.00 in 10.0 mi West 17.3 mph 24.2 mph N/A   Clear
6:58 PM 81.9 °F 86.0 °F 70.7 °F 69% 30.01 in 10.0 mi West 13.8 mph - N/A   Clear
7:58 PM 78.8 °F - 69.8 °F 74% 30.03 in 10.0 mi West 13.8 mph - N/A   Clear
8:58 PM 77.0 °F - 71.6 °F 83% 30.03 in 10.0 mi West 12.7 mph - N/A   Clear
9:58 PM 75.2 °F - 71.1 °F 87% 30.04 in 10.0 mi West 10.4 mph - N/A   Clear
10:58 PM 73.8 °F - 70.3 °F 89% 30.05 in 10.0 mi West 8.1 mph - N/A   Clear
11:58 PM 72.7 °F - 69.3 °F 89% 30.05 in 10.0 mi West 6.9 mph - N/A   Clear